343  
ASUS41 KLWX 221111  
RWRLWX  
 
REGIONAL WEATHER ROUNDUP  
NATIONAL WEATHER SERVICE BALTIMORE MD/WASHINGTON DC  
700 AM EDT THU AUG 22 2019  
 
NOTE: "FAIR" INDICATES FEW OR NO CLOUDS BELOW 12,000 FEET  
WITH NO SIGNIFICANT WEATHER AND/OR S TO VISIBILITY
.  
TC=TEMPERATURE CELSIUS  
 
* =NON NWS SITE. STATION DOES NOT REPORT PRECIPITATION (E.G. RAIN,  
SNOW, ETC.), THUNDER, OR FOG.
 
 
DCZ001-MDZ009-015-VAZ040>042-051-053>054-221200-  
WASHINGTON METRO  
 
CITY SKY/WX TMP DP RH WIND PRES REMARKS
 
WASHINGTON NAT FAIR 76 70 82 SW3 29.94R  
DULLES FAIR 70 67 90 CALM 29.95R  
QUANTICO FOG 74 72 93 NW3 29.95R VSB 1  
COLLEGE PARK* FAIR N/A N/A N/A CALM 29.93R  
LEESBURG* FAIR 72 68 88 CALM 29.96R  
MANASSAS* FAIR 69 68 96 CALM 29.96R FOG  
GAITHERSBURG* FAIR 69 68 96 CALM 29.97R  
 

 
 
MDZ006>007-011-014-221200-  
BALTIMORE METRO  
 
CITY SKY/WX TMP DP RH WIND PRES REMARKS
 
BWI AIRPORT MOCLDY 73 70 90 W5 29.93R  
MD SCIENCE CTR N/A 78 68 71 MISG 29.93R  
MARTIN STATE MOCLDY 75 72 88 NW3 29.94R  
ANNAPOLIS FAIR 79 72 79 NW5 29.92R  
FORT MEADE* FAIR 68 68 100 CALM 29.96R  
 

 
 
MDZ012-015-019>023-221200-  
MARYLAND EASTERN SHORE  
 
CITY SKY/WX TMP DP RH WIND PRES REMARKS
 
OCEAN CITY FAIR 73 73 100 W6 29.92R  
SALISBURY FAIR 74 72 93 CALM 29.92R FOG  
BAY BRIDGE AP* FAIR 77 72 83 W6 29.93R  
CAMBRIDGE* CLEAR 72 72 100 CALM 29.93R  
EASTON* PTCLDY 73 73 100 CALM 29.95R  
 

 
 
MDZ017>025-221200-  
SOUTHERN MARYLAND  
 
CITY SKY/WX TMP DP RH WIND PRES REMARKS
 
PATUXENT RIVER FAIR 75 71 87 W6 29.94R  
ST INIGOES FAIR 78 71 79 W3 29.94R  
LEONARDTOWN* FAIR 72 72 100 W3 29.96R  
 

 
 
MDZ003>005-221200-  
NORTH CENTRAL MARYLAND  
 
CITY SKY/WX TMP DP RH WIND PRES REMARKS
 
FREDERICK* FAIR 72 70 94 CALM 29.98R  
HAGERSTOWN APT FAIR 74 66 76 W7 29.96R  
 

 
 
MDZ501>502-221200-  
WESTERN MARYLAND  
 
CITY SKY/WX TMP DP RH WIND PRES REMARKS
 
OAKLAND* FAIR 63 63 100 W6 30.07R  
CUMBERLAND* FAIR 66 65 98 CALM 30.02R FOG  
 

 
 
VAZ025>031-221200-  
SHENANDOAH VALLEY  
 
CITY SKY/WX TMP DP RH WIND PRES REMARKS
 
WINCHESTER* FAIR 66 64 94 CALM 29.96R  
FRONT ROYAL* FAIR 68 68 100 S3 29.96S  
LURAY* FAIR 64 64 100 CALM 29.99R FOG  
NEW MARKET* FAIR 65 64 96 CALM 29.99R  
STAUNTON* FAIR 64 63 97 CALM 30.03R  
WAYNESBORO* FAIR 73 66 76 W7 30.02R  
 

 
 
WVZ021-048>050-054>055-221200-  
EASTERN WEST VIRGINIA PANHANDLE  
 
CITY SKY/WX TMP DP RH WIND PRES REMARKS
 
MARTINSBURG FAIR N/A N/A N/A SW3 29.95R  
PETERSBURG* CLOUDY 66 66 99 CALM 30.00R FOG  
 

 
 
VAZ036>039-050-221200-  
CENTRAL FOOTHILLS  
 
CITY SKY/WX TMP DP RH WIND PRES REMARKS
 
CHARLOTTESVILL FAIR 73 66 78 SW3 29.97R  
CULPEPER* FOG 67 66 95 CALM 29.98R VSB 1  
ORANGE* FAIR 68 66 94 CALM 29.97R FOG  
GORDONSVILLE* FAIR 69 69 100 CALM 29.97R  
WARRENTON* FOG 67 65 91 CALM 29.96R VSB 1/4  
 

 
 
VAZ055>057-221200-  
NORTH AND CENTRAL PIEDMONT  
 
CITY SKY/WX TMP DP RH WIND PRES REMARKS
 
FREDERICKSBRG* FAIR 72 72 99 CALM 29.95R  
STAFFORD* NOT AVBL  
 

 
 
NCZ024-NYZ072-PAZ021-071-VAZ022-071-221200-  
OTHER REGIONAL OBSERVATIONS  
 
CITY SKY/WX TMP DP RH WIND PRES REMARKS
 
NEW YORK CITY FAIR 75 70 84 CALM 29.88R  
PHILADELPHIA MOCLDY 76 69 79 W10 29.90R  
PITTSBURGH MOCLDY 68 65 90 CALM 29.96R  
ROANOKE FAIR 73 68 84 W6 30.04R  
RICHMOND FAIR 74 68 81 W7 29.97R  
RALEIGH FAIR 73 71 93 SW8 30.01R  
 

 
 
ANZ530>537-221200-  
MARINE OBSERVATIONS  
 
STATION/POSITION TIME TEMP WIND PRES
 
AIR SEA DIR/SP/G  
(UTC) (F) (DEG/KT/KT) (MB)  
THOMAS PT LIGHT 1100 77 82 260/ 10/ 11 1014.3R  
BALT KEY BRIDGE 1030 78 290/ 7/ 8 1012.9R  
COVE POINT 1030 76 280/ 8/ 12 1013.7R  
LEWISETTA 1030 75 83 260/ 11/ 13 1013.6R  
SOLOMONS ISLAND 1030 76 83 260/ 5/ 6 1013.1R  
PINEY POINT 1030 280/ 8/ 9 N/A  
 

 
 
 
 
CLICK HERE TO GO TO PREVIOUS BULLETINS.

The Nexlab VA Page
The Nexlab MD Page
The Nexlab WV Page Main Text Page